User: anonymous   Login
Location: Carnières
(50.1682°N, 3.3474°E)
Time: 06:49:54
(UTC+00:00)
Language:

MOZ.5/SAFIR/RUBIN 5/SL-8 - Orbit

View from above orbital plane
View from above orbital plane
View from above satellite
View from above satellite

Ground track
Ground track

The orbit data is extracted from the following two-line orbital elements,

1 28898U 05043G   24201.93507877  .00001476  00000-0  30091-3 0  9996
2 28898  98.2574 330.2700 0018965   4.8821 355.2562 14.62377904621267
Epoch (UTC): 19 July 2024 22:26:30
Eccentricity: 0.0018965
inclination: 98.2574°
perigee height: 672 km
apogee height: 699 km
right ascension of ascending node: 330.2700°
argument of perigee: 4.8821°
revolutions per day: 14.62377904
mean anomaly at epoch: 355.2562°
orbit number at epoch: 62126

The dashed part of the orbit path shows where the satellite is in the earth's shadow,  

DLR